Home > Weather > Chiclayo > Past weeks

Flag for Peru Weather for the Past 2 Weeks in Chiclayo, Lambayeque, Peru

Now
73 °F

Passing clouds.


Feels Like: 70 °F
Forecast: 75 / 88 °F
Wind: 6 mph from South

Location: Chiclayo Airport

Current Time: Feb 9, 2016 at 8:58:54 PM

Latest Report: Feb 9, 2016 at 8:00 PM


Visibility: N/A

Pressure: 29.89 "Hg

Humidity: 94%

Dew point: 72 °F

Location of ChiclayoLocation

Historic Weather in Chiclayo — Graph

°F

Chiclayo Temperature Yesterday

Maximum temperature yesterday: 88 °F (at 12:00 PM)
Minimum temperature yesterday: 75 °F (at 12:00 AM)
Average temperature yesterday: 78 °F

High & Low Weather Summary for the Past Weeks

 TemperatureHumidityPressure
High88 °F (Jan 26, 11:00 AM)100% (Jan 30, 3:00 AM)29.98 "Hg (Jan 30, 3:00 AM)
Low72 °F (Jan 27, 5:00 AM)52% (Jan 26, 11:00 AM)29.71 "Hg (Feb 5, 3:00 PM)
Average78 °F81%29.85 "Hg
* Reported Jan 25 7:00 PM — Feb 9 7:00 PM, Chiclayo, Weather by CustomWeather, © 2016

Note: Actual official high and low records may vary slightly from our data, if they occured in-between our weather recording intervals... More about our weather records

Advertising

Chiclayo Weather History for the Previous 24 Hours

 ConditionsComfort  
Time TempWeatherWind HumidityBarometerVisibility
7:00 PM
Tue, Feb 9
73 °FLight rain. Overcast.9 mph100%29.86 "HgN/A
6:00 PM73 °FLight rain. Low clouds.12 mph100%29.86 "Hg4 mi
5:00 PM75 °FRain. Overcast.16 mph94%29.86 "Hg4 mi
4:00 PM81 °FOvercast.20 mph70%29.83 "HgN/A
3:00 PM82 °FPartly sunny.20 mph66%29.83 "HgN/A
2:00 PM81 °FOvercast.20 mph70%29.86 "HgN/A
1:00 PM82 °FPartly sunny.18 mph66%29.86 "HgN/A
12:00 PM84 °FScattered clouds.17 mph62%29.89 "HgN/A
11:00 AM84 °FScattered clouds.13 mph66%29.89 "HgN/A
10:00 AM81 °FScattered clouds.14 mph74%29.89 "HgN/A
9:00 AM79 °FPassing clouds.15 mph79%29.92 "HgN/A
8:00 AM75 °FPartly sunny.14 mph83%29.89 "HgN/A
7:00 AM73 °FScattered clouds.8 mph89%29.86 "HgN/A
6:00 AM73 °FPassing clouds.8 mph89%29.83 "HgN/A
5:00 AM73 °FPassing clouds.5 mph89%29.83 "HgN/A
4:00 AM75 °FPassing clouds.8 mph83%29.80 "HgN/A
3:00 AM75 °FPassing clouds.5 mph83%29.80 "HgN/A
2:00 AM73 °FPassing clouds.9 mph89%29.83 "HgN/A
1:00 AM73 °FPassing clouds.12 mph94%29.83 "HgN/A
12:00 AM75 °FPassing clouds.10 mph89%29.86 "HgN/A
11:00 PM
Mon, Feb 8
75 °FPassing clouds.12 mph89%29.89 "HgN/A
10:00 PM75 °FOvercast.14 mph89%29.86 "HgN/A
9:00 PM75 °FOvercast.16 mph89%29.86 "HgN/A
8:00 PM75 °FOvercast.17 mph89%29.83 "HgN/A
Weather by CustomWeather, © 2016

See weather overviewHow to use our weather pages